Location: Brachbach
(49.1847°N, 9.7240°E)
Time: 01:22:34
(UTC+00:00)

FENGYUN 3A - Pass Details

Date: 21 August 2024
Orbit: 822 x 834 km, 98.6° (Epoch: 07 September)

Event Time Altitude Azimuth Distance (km) Brightness Sun altitude
Rises 03:05:57 0° 6° (N) 3,393 7.5 -11.9°
Reaches altitude 10° 03:08:39 10° 355° (N) 2,453 6.5 -11.5°
Maximum altitude 03:13:04 26° 300° (WNW) 1,581 4.9 -10.9°
Enters shadow 03:16:49 13° 250° (WSW) 2,240 5.3 -10.4°
